Regional Weather Roundup
Issued by NWS

Home | Current Version | Previous Version | Text Only | Print | Product List | Glossary Off
Versions: 1 2 3 4 5 6 7 8 9 10 11 12 13 14 15 16 17 18 19 20 21 22 23 24 25 26 27 28 29 30 31 32 33 34 35 36 37 38 39 40 41 42 43 44 45 46 47 48 49 50

000
ASUS43 KOAX 030410
RWRNE

WEATHER ROUNDUP FOR NEBRASKA
NATIONAL WEATHER SERVICE OMAHA NE
1100 PM CDT TUE SEP 02 2014

NOTES: SATELLITE DATA IS BEING USED TO AUGMENT CLOUD COVER ABOVE
       12000 FEET.
       "FAIR" INDICATES FEW OR NO CLOUDS BELOW 12,000 FEET WITH NO
       SIGNIFICANT WEATHER AND/OR OBSTRUCTIONS TO VISIBILITY.

  * THESE STATIONS DO NOT REPORT WEATHER SUCH AS RAIN...SNOW OR FOG.

NEZ001>004-019>022-054>056-030500-
NEBRASKA PANHANDLE

CITY           SKY/WX    TMP DP  RH WIND       PRES   REMARKS
SCOTTSBLUFF    CLEAR     62  52  69 E7        29.85F
ALLIANCE       CLEAR     61  52  72 SE8       29.85F
CHADRON        CLEAR     59  50  72 W5        29.79F
KIMBALL        CLEAR     64  52  66 S7        29.92F
SIDNEY         CLEAR     68  53  58 S10       29.92S
$$

NEZ057>060-069>072-079>082-030500-
SOUTHWEST NEBRASKA

CITY           SKY/WX    TMP DP  RH WIND       PRES   REMARKS
NORTH PLATTE   CLEAR     73  63  70 S16       29.87S
IMPERIAL       CLEAR     73  61  65 S14       29.90S
LEXINGTON      CLEAR     69  65  85 SE10      29.91S
MCCOOK         CLEAR     72  64  76 SE6       29.91S
OGALLALA       CLEAR     69  59  70 S12G17    29.88S
$$

NEZ005>010-023>029-035>040-094-030500-
NORTH CENTRAL NEBRASKA

CITY           SKY/WX    TMP DP  RH WIND       PRES   REMARKS
VALENTINE      CLEAR     72  59  63 S13       29.82S
AINSWORTH      CLEAR     69  59  69 S14       29.84F
BROKEN BOW     CLEAR     71  61  70 S14       29.90S
O`NEILL        PTCLDY    68  62  79 SE10      29.88S
ORD            PTCLDY    68  61  78 SE12      29.88F
THEDFORD       CLEAR     73  60  64 S13G18    29.87S
$$

NEZ041-046>049-061>064-073>077-083>087-030500-
SOUTH CENTRAL NEBRASKA

CITY           SKY/WX    TMP DP  RH WIND       PRES   REMARKS
GRAND ISLAND   CLEAR     69  59  70 SE9       29.92F
AURORA         CLEAR     65  61  86 SE7       29.92F
HASTINGS       CLEAR     71  58  63 SE10      29.93S
HEBRON         CLEAR     67  59  76 SE5       29.93F
HOLDREGE       CLEAR     66  63  87 CALM      29.92F
KEARNEY *      CLEAR     66  61  82 SE12      29.93F
YORK           CLEAR     66 N/A N/A SE9       29.93F
$$

NEZ011>018-030>034-042>045-030500-
NORTHEAST NEBRASKA

CITY           SKY/WX    TMP DP  RH WIND       PRES   REMARKS
NORFOLK        CLEAR     66  58  75 SE7       29.91F
ALBION         CLEAR     65  60  81 S7        29.91F
BLAIR          CLEAR     67  59  75 SE5       29.94F
FREMONT        CLEAR     67  60  79 SE7       29.94S
TEKAMAH        CLEAR     63  60  90 CALM      29.93F
WAYNE          CLEAR     65  59  81 S9        29.92S
$$

NEZ050>053-065>068-078-088>093-030500-
SOUTHEAST NEBRASKA

CITY           SKY/WX    TMP DP  RH WIND       PRES   REMARKS
LINCOLN        CLEAR     70  59  68 SE7       29.94F
OMAHA EPPLEY   CLEAR     69  59  70 S7        29.95F
BEATRICE       CLEAR     68  59  72 SE5       29.93F
FALLS CITY     CLEAR     67  64  90 E3        29.94F
NEBRASKA CITY  CLEAR     69  62  78 SE5       29.95F
PLATTSMOUTH    CLEAR     67  59  76 SE5       29.95F
$$

NEZ044-045-051>053-067-030500-
OMAHA AREA

CITY           SKY/WX    TMP DP  RH WIND       PRES   REMARKS
OMAHA EPPLEY   CLEAR     69  59  70 S7        29.95F
BLAIR          CLEAR     67  59  75 SE5       29.94F
FREMONT        CLEAR     67  60  79 SE7       29.94S
MILLARD        CLEAR     66  62  86 CALM      29.94F
OFFUTT AFB     CLEAR     63  63 100 E2        29.94F
PLATTSMOUTH    CLEAR     67  59  76 SE5       29.95F
WAHOO          FAIR      64  59  83 SE6       29.94F
$$



USA.gov is the U.S. government's official web portal to all federal, state and local government web resources and services.